Location: Hamburg
(53.5500°N, 10.0000°E)
Time: 22:28:41
(UTC+02:00)

Vanguard 1 Rocket - Visible Passes

Search period start: 24 July 2016 00:00
Search period end: 03 August 2016 00:00
Orbit: 652 x 4225 km, 34.3° (Epoch: 23 July)

Date Brightness Start Highest point End Pass type
(mag) Time Alt. Az. Time Alt. Az. Time Alt. Az.
25 Jul 10.0 04:13:57 10° SSE 04:16:34 12° SE 04:19:40 10° ESE visible
27 Jul 9.8 04:15:21 10° SSE 04:18:48 13° SE 04:23:05 10° ESE visible
29 Jul 9.6 04:17:23 10° S 04:21:08 15° SSE 04:25:59 10° ESE visible
31 Jul 9.4 04:19:45 10° S 04:23:35 16° SSE 04:28:38 10° ESE visible
02 Aug 9.3 04:22:22 10° SSW 04:26:07 16° SSE 04:31:05 10° SE visible
